• en Belgique
  • Liste des pays
  • À 7 jours
  • Température de l'eau
  • Carte satellitaire
  • Carte météo
  • Widgets météo
  • user-avatar
    Se connecter

    Météo par heure à Kazahskiy

    Ce jour, 18 Août, Samedi

    Heure Température Précipitation Vent Pression Humidité
    00:00 +13°C° 0 mm 3 m/s 759 mmHg 77%
    01:00 +13°C° 0 mm 3 m/s 759 mmHg 78%
    02:00 +12°C° 0 mm 3 m/s 759 mmHg 78%
    03:00 +12°C° 0 mm 3 m/s 759 mmHg 78%
    04:00 +12°C° 0 mm 3 m/s 759 mmHg 77%
    05:00 +12°C° 0 mm 3 m/s 759 mmHg 76%
    06:00 +13°C° 0 mm 4 m/s 760 mmHg 74%
    07:00 +14°C° 0 mm 4 m/s 760 mmHg 69%
    08:00 +16°C° 0 mm 5 m/s 760 mmHg 64%
    09:00 +17°C° 0 mm 6 m/s 760 mmHg 59%
    10:00 +19°C° 0 mm 6 m/s 760 mmHg 57%
    11:00 +20°C° 0 mm 6 m/s 760 mmHg 55%
    12:00 +20°C° 0 mm 6 m/s 760 mmHg 53%
    13:00 +20°C° 0 mm 6 m/s 759 mmHg 53%
    14:00 +20°C° 0 mm 6 m/s 759 mmHg 53%
    15:00 +20°C° 0 mm 6 m/s 759 mmHg 53%
    16:00 +20°C° 0 mm 5 m/s 759 mmHg 58%
    17:00 +19°C° 0 mm 4 m/s 759 mmHg 63%
    18:00 +18°C° 0 mm 4 m/s 759 mmHg 67%
    19:00 +17°C° 0 mm 4 m/s 760 mmHg 71%
    20:00 +14°C° 0 mm 3 m/s 760 mmHg 75%
    21:00 +13°C° 0 mm 3 m/s 760 mmHg 79%
    22:00 +12°C° 0 mm 3 m/s 760 mmHg 81%
    23:00 +12°C° 0 mm 3 m/s 760 mmHg 83%

    Demain, 19 Août, Dimanche

    Heure Température Précipitation Vent Pression Humidité
    00:00 +11°C° 0 mm 3 m/s 760 mmHg 85%
    01:00 +11°C° 0 mm 3 m/s 760 mmHg 86%
    02:00 +11°C° 0 mm 3 m/s 760 mmHg 87%
    03:00 +10°C° 0 mm 3 m/s 760 mmHg 89%
    04:00 +11°C° 0 mm 3 m/s 760 mmHg 86%
    05:00 +11°C° 0 mm 3 m/s 760 mmHg 83%
    06:00 +12°C° 0 mm 4 m/s 761 mmHg 79%
    07:00 +13°C° 0 mm 4 m/s 761 mmHg 72%
    08:00 +15°C° 0 mm 5 m/s 760 mmHg 64%
    09:00 +16°C° 0 mm 5 m/s 760 mmHg 57%
    10:00 +17°C° 0 mm 5 m/s 760 mmHg 55%
    11:00 +19°C° 0 mm 5 m/s 760 mmHg 53%
    12:00 +20°C° 0 mm 5 m/s 760 mmHg 51%
    13:00 +20°C° 0 mm 4 m/s 760 mmHg 51%
    14:00 +20°C° 0 mm 4 m/s 760 mmHg 51%
    15:00 +21°C° 0 mm 4 m/s 759 mmHg 51%
    16:00 +20°C° 0 mm 4 m/s 759 mmHg 56%
    17:00 +19°C° 0 mm 3 m/s 759 mmHg 61%
    18:00 +18°C° 0 mm 3 m/s 759 mmHg 66%
    19:00 +17°C° 0 mm 2 m/s 759 mmHg 70%
    20:00 +15°C° 0 mm 2 m/s 759 mmHg 74%
    21:00 +14°C° 0 mm 2 m/s 760 mmHg 78%
    22:00 +13°C° 0 mm 2 m/s 760 mmHg 79%
    23:00 +13°C° 0 mm 2 m/s 760 mmHg 81%

    Après-demain, 20 Août, Lundi

    Heure Température Précipitation Vent Pression Humidité
    00:00 +12°C° 0 mm 2 m/s 760 mmHg 82%
    01:00 +12°C° 0 mm 1 m/s 760 mmHg 84%
    02:00 +12°C° 0 mm 1 m/s 760 mmHg 85%
    03:00 +11°C° 0 mm 1 m/s 760 mmHg 86%
    04:00 +12°C° 0 mm 1 m/s 760 mmHg 84%
    05:00 +13°C° 0 mm 1 m/s 760 mmHg 81%
    06:00 +13°C° 0 mm 1 m/s 760 mmHg 79%
    07:00 +15°C° 0 mm 1 m/s 759 mmHg 72%
    08:00 +18°C° 0 mm 1 m/s 759 mmHg 65%
    09:00 +19°C° 0 mm 2 m/s 759 mmHg 58%
    10:00 +20°C° 0 mm 2 m/s 759 mmHg 54%
    11:00 +21°C° 0 mm 2 m/s 759 mmHg 50%
    12:00 +23°C° 0 mm 2 m/s 759 mmHg 46%
    13:00 +23°C° 0 mm 2 m/s 758 mmHg 46%
    14:00 +24°C° 0 mm 2 m/s 758 mmHg 45%
    15:00 +24°C° 0 mm 2 m/s 758 mmHg 45%
    16:00 +23°C° 0 mm 2 m/s 758 mmHg 50%
    17:00 +21°C° 0 mm 2 m/s 757 mmHg 55%
    18:00 +21°C° 0 mm 1 m/s 757 mmHg 61%
    19:00 +19°C° 0 mm 2 m/s 757 mmHg 62%
    20:00 +18°C° 0 mm 2 m/s 757 mmHg 64%
    21:00 +17°C° 0 mm 2 m/s 757 mmHg 66%
    22:00 +17°C° 0 mm 2 m/s 757 mmHg 66%
    23:00 +17°C° 0 mm 3 m/s 757 mmHg 67%

    21 Août, Mardi

    Heure Température Précipitation Vent Pression Humidité
    00:00 +17°C° 0 mm 3 m/s 757 mmHg 68%
    01:00 +16°C° 0 mm 3 m/s 757 mmHg 69%
    02:00 +16°C° 0 mm 3 m/s 757 mmHg 71%
    03:00 +16°C° 0 mm 3 m/s 756 mmHg 72%
    04:00 +16°C° 0 mm 3 m/s 756 mmHg 72%
    05:00 +17°C° 0 mm 3 m/s 756 mmHg 73%
    06:00 +17°C° 0 mm 3 m/s 756 mmHg 73%
    07:00 +19°C° 0 mm 4 m/s 756 mmHg 68%
    08:00 +21°C° 0 mm 4 m/s 756 mmHg 63%
    09:00 +23°C° 0 mm 4 m/s 756 mmHg 58%
    10:00 +25°C° 0 mm 5 m/s 756 mmHg 55%
    11:00 +27°C° 0 mm 5 m/s 756 mmHg 51%
    12:00 +28°C° 0 mm 5 m/s 756 mmHg 48%
    13:00 +28°C° 0 mm 5 m/s 755 mmHg 48%
    14:00 +28°C° 0 mm 5 m/s 755 mmHg 48%
    15:00 +29°C° 0 mm 5 m/s 755 mmHg 48%
    16:00 +27°C° 0 mm 5 m/s 754 mmHg 52%
    17:00 +26°C° 0 mm 4 m/s 754 mmHg 57%
    18:00 +25°C° 0 mm 3 m/s 754 mmHg 62%
    19:00 +24°C° 0 mm 3 m/s 754 mmHg 63%
    20:00 +22°C° 0 mm 3 m/s 754 mmHg 65%
    21:00 +21°C° 0 mm 3 m/s 754 mmHg 67%
    22:00 +20°C° 0 mm 3 m/s 754 mmHg 68%
    23:00 +20°C° 0 mm 3 m/s 754 mmHg 69%

    22 Août, Mercredi

    Heure Température Précipitation Vent Pression Humidité
    00:00 +19°C° 0 mm 3 m/s 754 mmHg 70%
    01:00 +19°C° 0 mm 3 m/s 754 mmHg 69%
    02:00 +19°C° 0 mm 3 m/s 754 mmHg 69%
    03:00 +18°C° 0 mm 3 m/s 754 mmHg 69%
    04:00 +19°C° 0 mm 3 m/s 753 mmHg 68%
    05:00 +19°C° 0 mm 4 m/s 753 mmHg 67%
    06:00 +19°C° 0 mm 4 m/s 753 mmHg 67%
    07:00 +21°C° 0 mm 4 m/s 753 mmHg 61%
    08:00 +23°C° 0 mm 5 m/s 753 mmHg 55%
    09:00 +26°C° 0 mm 6 m/s 752 mmHg 49%
    10:00 +27°C° 0 mm 7 m/s 752 mmHg 45%
    11:00 +28°C° 0 mm 7 m/s 752 mmHg 41%
    12:00 +29°C° 0 mm 8 m/s 751 mmHg 38%
    13:00 +28°C° 0,2 mm 8 m/s 751 mmHg 46%
    14:00 +27°C° 0,2 mm 7 m/s 751 mmHg 54%
    15:00 +24°C° 0,2 mm 7 m/s 751 mmHg 61%
    16:00 +23°C° 0,6 mm 6 m/s 751 mmHg 70%
    17:00 +21°C° 0,6 mm 5 m/s 752 mmHg 78%
    18:00 +19°C° 0,6 mm 3 m/s 752 mmHg 86%
    19:00 +18°C° 0 mm 3 m/s 753 mmHg 85%
    20:00 +17°C° 0 mm 4 m/s 753 mmHg 84%
    21:00 +15°C° 0 mm 4 m/s 754 mmHg 83%
    22:00 +16°C° 0 mm 3 m/s 754 mmHg 84%
    23:00 +14°C° 0 mm 3 m/s 755 mmHg 84%

    23 Août, Jeudi

    Heure Température Précipitation Vent Pression Humidité
    00:00 +13°C° 0 mm 3 m/s 755 mmHg 85%
    01:00 +12°C° 0 mm 3 m/s 756 mmHg 86%
    02:00 +12°C° 0 mm 3 m/s 756 mmHg 88%
    03:00 +11°C° 0 mm 3 m/s 757 mmHg 89%
    04:00 +11°C° 0 mm 3 m/s 757 mmHg 87%
    05:00 +11°C° 0 mm 3 m/s 757 mmHg 85%
    06:00 +12°C° 0 mm 3 m/s 758 mmHg 83%
    07:00 +13°C° 0 mm 3 m/s 758 mmHg 74%
    08:00 +15°C° 0 mm 4 m/s 758 mmHg 65%
    09:00 +18°C° 0 mm 4 m/s 758 mmHg 57%
    10:00 +19°C° 0 mm 4 m/s 758 mmHg 53%
    11:00 +20°C° 0 mm 5 m/s 758 mmHg 50%
    12:00 +20°C° 0 mm 5 m/s 758 mmHg 47%
    13:00 +21°C° 0 mm 5 m/s 758 mmHg 47%
    14:00 +21°C° 0 mm 5 m/s 758 mmHg 48%
    15:00 +21°C° 0 mm 5 m/s 758 mmHg 48%
    16:00 +20°C° 0 mm 4 m/s 758 mmHg 53%
    17:00 +19°C° 0 mm 3 m/s 758 mmHg 58%
    18:00 +18°C° 0 mm 2 m/s 758 mmHg 63%
    19:00 +17°C° 0 mm 2 m/s 758 mmHg 66%
    20:00 +16°C° 0 mm 2 m/s 758 mmHg 69%
    21:00 +15°C° 0 mm 1 m/s 758 mmHg 72%
    22:00 +14°C° 0 mm 1 m/s 758 mmHg 73%
    23:00 +14°C° 0 mm 1 m/s 758 mmHg 74%
    Voir plus